Flag for Martinique Weather past 2 weeks in Fort-de-France, Martinique

Now
75 °F

Light rain. Partly sunny.


Feels Like: 76 °F
Forecast: 73 / 84 °F
Wind: 20 mph from Northeast

Location: Le Lamentin Airport

Current Time: Mar 4, 2015 at 12:01:36 PM

Latest Report: Mar 4, 2015 at 11:30 AM


Visibility: N/A

Pressure: 30.04 "Hg

Humidity: 78%

Dew point: 68 °F

Location of Fort-de-FranceLocation

Historic Weather in Fort-de-France — Graph

°F

Fort-de-France temperature yesterday

Maximum temperature yesterday: 84 °F (at 11:30 AM)
Minimum temperature yesterday: 72 °F (at 12:30 AM)
Average temperature yesterday: 77 °F

Past Weeks' High & Low Weather Summary

 TemperatureHumidityPressure
High86 °F (Feb 20, 1:00 PM)100% (Feb 19, 2:30 AM)30.09 "Hg (Feb 19, 2:30 AM)
Low72 °F (Feb 20, 4:30 AM)48% (Feb 28, 12:00 PM)29.89 "Hg (Feb 19, 4:00 PM)
Average78 °F74%29.99 "Hg
* Reported Feb 17 11:00 AM — Mar 4 11:00 AM, Fort-de-France, Weather by CustomWeather, © 2015

Note: Actual official high and low records may vary slightly from our data, if they occured in-between our weather recording intervals... More about our weather records

Advertising

Fort-de-France weather history for previous 24 hours

 ConditionsComfort  
Time TempWeatherWind HumidityBarometerVisibility
11:00 AM
Wed, Mar 4
77 °FLight rain. Partly sunny.15 mph79%30.07 "HgN/A
10:30 AM75 °FLight rain. Partly sunny.18 mph94%30.07 "Hg4 mi
10:00 AM77 °FLight rain. Broken clouds.16 mph79%30.07 "HgN/A
9:30 AM79 °FBroken clouds.13 mph79%30.04 "Hg4 mi
9:00 AM77 °FBroken clouds.14 mph79%30.04 "HgN/A
8:30 AM79 °FOvercast.15 mph74%30.01 "HgN/A
8:00 AM79 °FPartly sunny.17 mph74%30.01 "HgN/A
7:30 AM77 °FPartly sunny.17 mph83%30.01 "HgN/A
7:00 AM75 °FPartly sunny.13 mph83%29.98 "HgN/A
6:30 AM75 °FBroken clouds.13 mph83%29.98 "HgN/A
6:00 AM75 °FLight rain. Partly cloudy.12 mph89%29.95 "Hg5 mi
5:30 AM75 °FPartly cloudy.12 mph83%29.95 "HgN/A
5:00 AM75 °FPartly cloudy.14 mph83%29.95 "HgN/A
4:30 AM73 °FPartly cloudy.10 mph89%29.92 "HgN/A
4:00 AM75 °FLight rain. Passing clouds.12 mph83%29.95 "HgN/A
3:30 AM75 °FPartly cloudy.13 mph78%29.95 "HgN/A
3:00 AM75 °FPassing clouds.9 mph83%29.95 "HgN/A
2:30 AM73 °FPassing clouds.10 mph89%29.95 "HgN/A
2:00 AM73 °FMild.13 mph89%29.95 "HgN/A
1:30 AM73 °FLight rain. Passing clouds.16 mph94%29.98 "HgN/A
1:00 AM73 °FLight rain. Partly cloudy.14 mph94%29.98 "Hg5 mi
12:30 AM73 °FPassing clouds.20 mph94%30.01 "HgN/A
12:00 AM73 °FLight rain. Partly cloudy.10 mph94%30.01 "HgN/A
11:30 PM
Tue, Mar 3
73 °FLight rain. Partly cloudy.10 mph94%30.01 "HgN/A
11:00 PM73 °FLight rain. Partly cloudy.9 mph94%30.01 "HgN/A
10:30 PM73 °FRain. Partly cloudy.12 mph94%30.01 "HgN/A
10:00 PM73 °FLight rain. Passing clouds.15 mph94%30.01 "HgN/A
9:30 PM77 °FPassing clouds.12 mph79%30.01 "HgN/A
9:00 PM77 °FPassing clouds.9 mph79%30.01 "HgN/A
8:30 PM77 °FPassing clouds.13 mph74%29.98 "HgN/A
8:00 PM75 °FMostly cloudy.12 mph89%29.98 "HgN/A
7:30 PM77 °FPassing clouds.13 mph79%29.98 "HgN/A
7:00 PM77 °FPassing clouds.13 mph79%29.95 "HgN/A
6:30 PM79 °FPartly cloudy.10 mph74%29.95 "HgN/A
6:00 PM79 °FMore clouds than sun.13 mph70%29.95 "HgN/A
5:30 PM79 °FWarm.13 mph70%29.95 "HgN/A
5:00 PM79 °FScattered clouds.16 mph70%29.95 "HgN/A
4:30 PM81 °FPartly sunny.16 mph70%29.95 "HgN/A
4:00 PM81 °FBroken clouds.17 mph70%29.92 "HgN/A
3:30 PM81 °FBroken clouds.16 mph70%29.92 "HgN/A
3:00 PM79 °FBroken clouds.16 mph79%29.92 "HgN/A
2:30 PM82 °FPartly sunny.20 mph66%29.95 "HgN/A
2:00 PM82 °FBroken clouds.20 mph62%29.95 "HgN/A
1:30 PM82 °FBroken clouds.22 mph62%29.95 "HgN/A
1:00 PM82 °FPartly sunny.21 mph62%29.98 "HgN/A
12:30 PM84 °FPartly sunny.21 mph55%29.98 "HgN/A
12:00 PM82 °FPartly sunny.22 mph58%30.01 "HgN/A
Weather by CustomWeather, © 2015

See weather overviewHow to use our weather pages